Carlsbad, NM

12:16 AM MDT on October 21, 2017 (GMT -0600)
Cavern City

Weather History for KCNM - January, 2013

Change the Weather History Date:

Thursday, January 24, 2013

  Actual Average Record
Temperature  
Mean Temperature 56 °F -  
Max Temperature 78 °F 59 °F 86 °F (1999)
Min Temperature 35 °F 29 °F 9 °F (1963)
Degree Days  
Heating Degree Days 8    
Growing Degree Days 6 (Base 50)    
Moisture  
Dew Point 24 °F    
Average Humidity 32    
Maximum Humidity 59    
Minimum Humidity 12    
Precipitation  
Precipitation 0.00 in - - ()
Sea Level Pressure  
Sea Level Pressure 30.09 in    
Wind  
Wind Speed 7 mph (West)    
Max Wind Speed 21 mph    
Max Gust Speed 32 mph    
Visibility 10 miles    
Events      
Averages and records for this station are not official NWS values.
T = Trace of Precipitation, MM = Missing Value Source: NWS Daily Summary

Daily Weather History Graph

Daily Weather History Graph

Search for Another Location

Airport or City:

Trip Planner

Search our weather history database for the weather conditions in past years. The results will help you decide how hot, cold, wet, or windy it might be!

Date:

Astronomy

Jan. 24, 2013 Rise Set
Actual Time 6:55 AM MST 5:23 PM MST
Civil Twilight 6:29 AM MST 5:49 PM MST
Nautical Twilight 5:59 AM MST 6:19 PM MST
Astronomical Twilight 5:30 AM MST 6:48 PM MST
Moon 3:29 PM MST (1/24) 4:52 AM MST (1/24)
Length of Visible Light 11h 20m
Length of Day
10h 27m
Waxing Gibbous, 95% of the Moon is Illuminated
Jan 24
Waxing Gibbous
Jan 26
Full
Feb 3
Last Quarter
Feb 10
New
Feb 17
First Quarter

Hourly Weather History & Observations

Time (MST) Temp. Windchill Dew Point Humidity Pressure Visibility Wind Dir Wind Speed Gust Speed Precip Events Conditions
12:53 AM 37.0 °F - 21.9 °F 54% 30.13 in 10.0 mi Calm Calm - N/A   Clear
1:53 AM 37.0 °F - 21.9 °F 54% 30.13 in 10.0 mi Calm Calm - N/A   Clear
2:53 AM 36.0 °F 31.1 °F 21.9 °F 57% 30.13 in 10.0 mi WNW 5.8 mph - N/A   Clear
3:53 AM 36.0 °F 31.1 °F 21.9 °F 57% 30.11 in 10.0 mi WSW 5.8 mph - N/A   Clear
4:53 AM 37.0 °F 31.6 °F 21.9 °F 54% 30.12 in 10.0 mi West 6.9 mph - N/A   Clear
5:53 AM 36.0 °F 32.1 °F 21.9 °F 57% 30.16 in 10.0 mi NNW 4.6 mph - N/A   Clear
6:53 AM 35.1 °F 31.0 °F 21.9 °F 59% 30.18 in 10.0 mi West 4.6 mph - N/A   Clear
7:53 AM 41.0 °F 39.0 °F 23.0 °F 49% 30.18 in 10.0 mi North 3.5 mph - N/A   Clear
8:53 AM 48.9 °F - 19.9 °F 32% 30.16 in 10.0 mi North 5.8 mph - N/A   Clear
9:53 AM 55.0 °F - 18.0 °F 23% 30.17 in 10.0 mi NNE 4.6 mph - N/A   Clear
10:53 AM 60.1 °F - 19.0 °F 20% 30.15 in - North - - N/A   Clear
11:53 AM 75.0 °F - 25.0 °F 16% 30.08 in 10.0 mi Variable 5.8 mph - N/A   Clear
12:24 PM 78.8 °F - 24.8 °F 14% 30.14 in 10.0 mi WSW 16.1 mph 25.3 mph N/A   Clear
12:53 PM 77.0 °F - 23.0 °F 13% 30.04 in 10.0 mi WSW 18.4 mph - N/A   Clear
1:53 PM 77.0 °F - 23.0 °F 13% 30.01 in 10.0 mi West 20.7 mph 26.5 mph N/A   Clear
2:53 PM 77.0 °F - 21.0 °F 12% 30.00 in 10.0 mi WSW 15.0 mph 24.2 mph N/A   Clear
3:53 PM 73.0 °F - 23.0 °F 15% 30.01 in 10.0 mi West 19.6 mph 27.6 mph N/A   Clear
4:53 PM 69.1 °F - 24.1 °F 18% 30.02 in 10.0 mi West 12.7 mph - N/A   Clear
5:53 PM 64.9 °F - 25.0 °F 22% 30.04 in 10.0 mi West 10.4 mph - N/A   Clear
6:53 PM 66.9 °F - 25.0 °F 21% 30.05 in 10.0 mi WSW 11.5 mph - N/A   Clear
7:53 PM 66.0 °F - 26.1 °F 22% 30.04 in 10.0 mi West 15.0 mph - N/A   Clear
8:53 PM 64.0 °F - 27.0 °F 25% 30.03 in 10.0 mi WSW 15.0 mph - N/A   Clear
9:53 PM 63.0 °F - 27.0 °F 26% 30.03 in 10.0 mi WSW 16.1 mph - N/A   Clear
10:53 PM 55.9 °F - 28.0 °F 34% 30.04 in 10.0 mi SSW 5.8 mph - N/A   Clear
11:42 PM 60.8 °F - 28.4 °F 29% 30.12 in 10.0 mi WSW 8.1 mph 32.2 mph N/A   Clear
11:53 PM 62.1 °F - 28.0 °F 28% 29.99 in 10.0 mi WSW 6.9 mph - N/A   Clear